Powrót do katalogu

STARLINK-2147

AktywnyŁącznośćVLEO
NORAD 47736·PAYLOAD·🇺🇸 United States

Wystrzelony Mar 4, 2021 z Cape Canaveral Space Force Station

Loading…

Następne Przeloty (najbliższe 24 godziny)

TLE

ŚwieżeSource: CelesTrak SupGP

Epoka: Sep 14, 2026, 14:13 UTC

1 47736C 21017Q   26257.59284722  .00069392  00000+0  45865-3 0  2575
2 47736  53.0691  17.5371 0004171 325.0793 206.3211 15.74841659    15

Śledź STARLINK-2147 w czasie rzeczywistym z AllMySat

Download on the App Store